Weather History for KPEX - January, 2013

Change the Weather History Date:

Wednesday, January 2, 2013

  Actual Average (KLJF) Record (KLJF)
Temperature  
Mean Temperature 18 °F -  
Max Temperature 25 °F 22 °F 44 °F (1998)
Min Temperature 11 °F 3 °F -23 °F (1979)
Degree Days  
Heating Degree Days 47    
Moisture  
Dew Point 14 °F    
Average Humidity 88    
Maximum Humidity 95    
Minimum Humidity 80    
Precipitation  
Precipitation 0.00 in - - ()
Sea Level Pressure  
Sea Level Pressure 29.96 in    
Wind  
Wind Speed 7 mph (SW)    
Max Wind Speed 17 mph    
Max Gust Speed 20 mph    
Visibility 7 miles    
Events Snow    
Averages and records for this station are not official NWS values.
T = Trace of Precipitation, MM = Missing Value Source: NWS Daily Summary

Daily Weather History Graph

Daily Weather History Graph

Search for Another Location

Airport or City:

Trip Planner

Search our weather history database for the weather conditions in past years. The results will help you decide how hot, cold, wet, or windy it might be!

Date:

Astronomy

Jan. 02, 2013 Rise Set
Actual Time 7:58 AM CST 4:47 PM CST
Civil Twilight 7:24 AM CST 5:21 PM CST
Nautical Twilight 6:47 AM CST 5:59 PM CST
Astronomical Twilight 6:11 AM CST 6:35 PM CST
Moon 10:38 PM CST (1/2) 10:24 AM CST (1/2)
Length of Visible Light 9h 57m
Length of Day
8h 49m
Waning Gibbous, 75% of the Moon is Illuminated
Jan 2
Waning Gibbous
Jan 4
Last Quarter
Jan 11
New
Jan 18
First Quarter
Jan 26
Full

Hourly Weather History & Observations

Time (CST) Temp. Windchill Dew Point Humidity Pressure Visibility Wind Dir Wind Speed Gust Speed Precip Events Conditions
12:13 AM 20.7 °F 11.0 °F 18.1 °F 90% 29.96 in 10.0 mi SW 8.1 mph - N/A   Overcast
12:33 AM 20.8 °F 11.2 °F 18.1 °F 89% 29.95 in 10.0 mi SW 8.1 mph - N/A   Overcast
12:53 AM 20.8 °F 10.4 °F 18.1 °F 89% 29.94 in 10.0 mi SW 9.2 mph - N/A   Overcast
1:13 AM 20.8 °F 11.2 °F 18.0 °F 89% 29.94 in 10.0 mi SW 8.1 mph - N/A   Overcast
1:33 AM 20.8 °F 11.2 °F 17.4 °F 87% 29.93 in 10.0 mi SSW 8.1 mph - N/A   Overcast
1:53 AM 20.3 °F 10.6 °F 16.9 °F 87% 29.93 in 10.0 mi SSW 8.1 mph - N/A   Overcast
2:14 AM 19.8 °F 9.9 °F 16.9 °F 89% 29.93 in 7.0 mi SSW 8.1 mph - N/A   Overcast
2:33 AM 18.5 °F 9.3 °F 16.2 °F 91% 29.92 in 7.0 mi South 6.9 mph - N/A   Scattered Clouds
2:53 AM 17.4 °F 8.0 °F 15.4 °F 92% 29.92 in 7.0 mi South 6.9 mph - N/A   Clear
3:34 AM 15.4 °F 4.6 °F 13.8 °F 93% 29.91 in 5.0 mi South 8.1 mph - N/A   Clear
3:53 AM 14.9 °F 3.1 °F 13.3 °F 93% 29.91 in 5.0 mi South 9.2 mph - N/A   Clear
4:13 AM 14.0 °F 3.9 °F 12.7 °F 95% 29.91 in 5.0 mi South 6.9 mph - N/A   Mostly Cloudy
4:33 AM 13.6 °F 3.5 °F 12.2 °F 94% 29.91 in 5.0 mi South 6.9 mph - N/A   Overcast
4:53 AM 13.1 °F 2.8 °F 11.5 °F 93% 29.91 in 5.0 mi South 6.9 mph - N/A   Overcast
5:13 AM 12.2 °F 2.9 °F 10.4 °F 92% 29.90 in 5.0 mi South 5.8 mph - N/A   Mostly Cloudy
5:33 AM 11.7 °F 3.7 °F 9.9 °F 92% 29.90 in 5.0 mi South 4.6 mph - N/A   Overcast
6:13 AM 11.3 °F 0.7 °F 9.5 °F 92% 29.89 in 5.0 mi SSE 6.9 mph - N/A   Overcast
6:33 AM 11.1 °F 1.7 °F 9.5 °F 93% 29.90 in 4.0 mi South 5.8 mph - N/A   Overcast
6:53 AM 11.3 °F 1.9 °F 9.5 °F 92% 29.90 in 3.0 mi SSW 5.8 mph - N/A   Overcast
7:13 AM 11.3 °F 5.1 °F 9.5 °F 92% 29.91 in 4.0 mi South 3.5 mph - N/A   Overcast
7:33 AM 11.7 °F 2.3 °F 9.5 °F 91% 29.90 in 5.0 mi SSE 5.8 mph - N/A   Overcast
7:53 AM 11.7 °F 2.3 °F 9.5 °F 91% 29.90 in 5.0 mi SSE 5.8 mph - N/A   Overcast
8:13 AM 12.0 °F 4.1 °F 10.0 °F 92% 29.91 in 4.0 mi South 4.6 mph - N/A Snow Light Snow
8:33 AM 12.2 °F 4.3 °F 10.2 °F 92% 29.91 in 2.5 mi SSE 4.6 mph - N/A Snow Light Snow
8:53 AM 12.2 °F 4.3 °F 10.2 °F 92% 29.91 in 2.5 mi South 4.6 mph - N/A Snow Light Snow
9:13 AM 12.6 °F 4.8 °F 10.4 °F 91% 29.91 in 2.0 mi South 4.6 mph - N/A Snow Light Snow
9:33 AM 12.7 °F 6.7 °F 10.8 °F 92% 29.92 in 1.2 mi South 3.5 mph - N/A Snow Light Snow
9:53 AM 13.1 °F 5.4 °F 11.3 °F 93% 29.92 in 1.5 mi South 4.6 mph - N/A Snow Light Snow
10:13 AM 14.0 °F 8.2 °F 12.0 °F 92% 29.93 in 1.8 mi South 3.5 mph - N/A Snow Light Snow
10:33 AM 14.0 °F 6.5 °F 12.2 °F 93% 29.92 in 2.0 mi South 4.6 mph - N/A Snow Light Snow
10:53 AM 14.9 °F 9.2 °F 12.7 °F 91% 29.92 in 3.0 mi South 3.5 mph - N/A Snow Light Snow
11:13 AM 15.4 °F - 13.1 °F 90% 29.91 in 2.5 mi Calm Calm - N/A Snow Light Snow
11:33 AM 16.3 °F - 13.8 °F 90% 29.91 in 3.0 mi Calm Calm - N/A   Overcast
11:53 AM 16.7 °F 11.2 °F 13.6 °F 88% 29.91 in 7.0 mi South 3.5 mph - N/A   Overcast
12:13 PM 17.2 °F - 14.0 °F 87% 29.90 in 7.0 mi Calm Calm - N/A   Overcast
12:34 PM 17.4 °F - 14.2 °F 87% 29.91 in 7.0 mi Calm Calm - N/A   Overcast
12:53 PM 17.6 °F 12.3 °F 14.7 °F 88% 29.91 in 5.0 mi South 3.5 mph - N/A   Overcast
1:13 PM 18.1 °F - 15.3 °F 88% 29.91 in 4.0 mi Calm Calm - N/A   Overcast
1:33 PM 18.3 °F - 15.8 °F 90% 29.91 in 4.0 mi Calm Calm - N/A   Overcast
1:53 PM 18.9 °F - 16.5 °F 91% 29.91 in 5.0 mi Calm Calm - N/A   Overcast
2:13 PM 19.8 °F - 17.6 °F 91% 29.92 in 4.0 mi Calm Calm - N/A   Overcast
2:33 PM 20.3 °F - 18.5 °F 93% 29.93 in 5.0 mi Calm Calm - N/A   Overcast
2:53 PM 21.4 °F - 19.6 °F 93% 29.93 in 5.0 mi Calm Calm - N/A   Overcast
3:13 PM 21.9 °F - 19.9 °F 92% 29.93 in 5.0 mi Calm Calm - N/A   Overcast
3:33 PM 22.8 °F - 20.8 °F 92% 29.94 in 7.0 mi Calm Calm - N/A   Overcast
3:53 PM 24.6 °F 16.7 °F 21.6 °F 88% 29.95 in 10.0 mi WNW 6.9 mph - N/A   Overcast
4:13 PM 24.8 °F 16.1 °F 21.7 °F 88% 29.95 in 7.0 mi West 8.1 mph - N/A   Overcast
4:33 PM 24.8 °F 16.9 °F 22.1 °F 89% 29.95 in 10.0 mi West 6.9 mph - N/A   Overcast
4:53 PM 24.8 °F 15.3 °F 22.1 °F 89% 29.96 in 10.0 mi WNW 9.2 mph - N/A   Overcast
5:13 PM 25.2 °F 14.4 °F 21.9 °F 87% 29.97 in 10.0 mi WNW 11.5 mph 17.3 mph N/A   Overcast
5:33 PM 24.3 °F 14.6 °F 19.4 °F 82% 29.98 in 10.0 mi WNW 9.2 mph 17.3 mph N/A   Overcast
5:53 PM 23.5 °F 13.0 °F 18.7 °F 82% 29.98 in 10.0 mi WNW 10.4 mph 18.4 mph N/A   Overcast
6:13 PM 22.6 °F 11.3 °F 17.6 °F 81% 29.99 in 10.0 mi WNW 11.5 mph 19.6 mph N/A   Overcast
6:33 PM 21.7 °F 9.6 °F 16.7 °F 81% 30.00 in 10.0 mi WNW 12.7 mph 17.3 mph N/A   Overcast
6:53 PM 21.0 °F 9.3 °F 15.8 °F 80% 30.01 in 10.0 mi WNW 11.5 mph 17.3 mph N/A   Overcast
7:13 PM 20.3 °F 9.0 °F 15.6 °F 82% 30.02 in 10.0 mi WNW 10.4 mph - N/A   Overcast
7:33 PM 19.6 °F 5.7 °F 14.9 °F 82% 30.02 in 10.0 mi West 15.0 mph - N/A   Overcast
7:53 PM 18.1 °F 5.0 °F 13.5 °F 82% 30.03 in 10.0 mi WNW 12.7 mph - N/A   Overcast
8:13 PM 17.2 °F 4.5 °F 12.6 °F 82% 30.04 in 10.0 mi WNW 11.5 mph 18.4 mph N/A   Overcast
8:33 PM 16.5 °F 3.0 °F 11.8 °F 82% 30.04 in 10.0 mi WNW 12.7 mph - N/A   Overcast
8:53 PM 15.4 °F 1.6 °F 10.9 °F 82% 30.05 in 10.0 mi West 12.7 mph - N/A   Overcast
9:13 PM 14.7 °F -1.6 °F 10.4 °F 83% 30.06 in 10.0 mi West 17.3 mph - N/A   Overcast
9:33 PM 14.0 °F 1.2 °F 10.0 °F 84% 30.06 in 10.0 mi WNW 10.4 mph - N/A   Overcast
9:53 PM 14.0 °F 1.2 °F 10.0 °F 84% 30.07 in 10.0 mi WNW 10.4 mph 16.1 mph N/A   Overcast
10:13 PM 13.8 °F 0.2 °F 9.0 °F 81% 30.08 in 10.0 mi WNW 11.5 mph 16.1 mph N/A   Overcast
10:33 PM 13.1 °F 1.8 °F 8.6 °F 82% 30.09 in 10.0 mi WNW 8.1 mph 18.4 mph N/A Snow Light Snow
10:53 PM 12.9 °F 1.6 °F 8.4 °F 82% 30.10 in 10.0 mi WNW 8.1 mph - N/A   Overcast
11:13 PM 12.2 °F -0.2 °F 7.7 °F 82% 30.10 in 10.0 mi WNW 9.2 mph 16.1 mph N/A   Overcast
11:33 PM 12.2 °F -1.0 °F 7.5 °F 82% 30.10 in 10.0 mi NW 10.4 mph 16.1 mph N/A Snow Light Snow
11:53 PM 12.2 °F -1.0 °F 7.7 °F 82% 30.11 in 10.0 mi WNW 10.4 mph - N/A   Overcast